Location: Ecklingerode
(51.5036°N, 10.3122°E)
Time: 07:32:14
(UTC+00:00)

Cosmos 2228 - Pass Details

Date: 29 October 2020
Orbit: 590 x 617 km, 82.5° (Epoch: 01 December)

Event Time Altitude Azimuth Distance (km) Brightness Sun altitude
Rises 17:23:46 0° 208° (SSW) 2,820 6.9 -14.0°
Reaches altitude 10° 17:26:03 10° 215° (SW) 1,926 6.1 -14.4°
Maximum altitude 17:30:06 42° 287° (WNW) 861 4.3 -15.0°
Drops below altitude 10° 17:34:13 10° 359° (N) 1,956 5.6 -15.7°
Sets 17:36:33 0° 6° (N) 2,869 6.4 -16.0°
